| time (UTC) | temp F | wind direction | speed knots | gust knots | rain 1hr in | rain 24hr in | rain mn in | humidity % | barometer mb |
| 20260509005827 | 76 | 271 | 0.9 | 0.9 | 0.00 | 0.00 | 0.00 | 21 | 1013.9 |
| 20260509005325 | 76 | 123 | 1.7 | 1.7 | 0.00 | 0.00 | 0.00 | 21 | 1014.1 |
| 20260509004820 | 75 | 102 | 3.5 | 4.3 | 0.00 | 0.00 | 0.00 | 22 | 1014.1 |
| 20260509004316 | 76 | 21 | 3.5 | 5.2 | 0.00 | 0.00 | 0.00 | 22 | 1014.3 |
| 20260509003814 | 75 | 68 | 1.7 | 2.6 | 0.00 | 0.00 | 0.00 | 22 | 1014.1 |
| 20260509003312 | 75 | 81 | 1.7 | 1.7 | 0.00 | 0.00 | 0.00 | 22 | 1014.1 |
| 20260509002809 | 75 | 347 | 3.5 | 5.2 | 0.00 | 0.00 | 0.00 | 22 | 1014.2 |
| 20260509002307 | 76 | 320 | 4.3 | 6.1 | 0.00 | 0.00 | 0.00 | 22 | 1014.2 |
| 20260509001804 | 75 | 33 | 3.5 | 5.2 | 0.00 | 0.00 | 0.00 | 22 | 1014.2 |
| 20260509001259 | 76 | 89 | 3.5 | 6.1 | 0.00 | 0.00 | 0.00 | 21 | 1014.5 |
| 20260509000757 | 76 | 2 | 5.2 | 6.1 | 0.00 | 0.00 | 0.00 | 22 | 1014.3 |
| 20260509000256 | 75 | 288 | 1.7 | 4.3 | 0.00 | 0.00 | 0.00 | 22 | 1014.3 |
| 20260508235751 | 75 | 344 | 3.5 | 4.3 | 0.00 | 0.00 | 0.00 | 22 | 1014.5 |
| 20260508235248 | 75 | 89 | 0.9 | 1.7 | 0.00 | 0.00 | 0.00 | 22 | 1014.3 |
| 20260508234745 | 75 | 36 | 5.2 | 7.0 | 0.00 | 0.00 | 0.00 | 22 | 1014.4 |
| 20260508234241 | 75 | 67 | 5.2 | 7.0 | 0.00 | 0.00 | 0.00 | 22 | 1014.4 |
| 20260508233740 | 75 | 52 | 4.3 | 7.0 | 0.00 | 0.00 | 0.00 | 22 | 1014.4 |
| 20260508233238 | 75 | 21 | 4.3 | 6.1 | 0.00 | 0.00 | 0.00 | 22 | 1014.3 |
| 20260508232736 | 75 | 75 | 3.5 | 6.1 | 0.00 | 0.00 | 0.00 | 22 | 1014.3 |
| 20260508232232 | 75 | 341 | 0.9 | 2.6 | 0.00 | 0.00 | 0.00 | 23 | 1014.4 |
| 20260508231730 | 76 | 316 | 4.3 | 5.2 | 0.00 | 0.00 | 0.00 | 22 | 1014.3 |
| 20260508231226 | 75 | 335 | 2.6 | 2.6 | 0.00 | 0.00 | 0.00 | 22 | 1014.5 |
| 20260508230723 | 75 | 85 | 0.9 | 0.9 | 0.00 | 0.00 | 0.00 | 22 | 1014.4 |
| 20260508230219 | 75 | 328 | 7.8 | 11.3 | 0.00 | 0.00 | 0.00 | 23 | 1014.4 |
| 20260508225717 | 75 | 33 | 2.6 | 5.2 | 0.00 | 0.00 | 0.00 | 23 | 1014.3 |
| 20260508225214 | 76 | 19 | 7.8 | 11.3 | 0.00 | 0.00 | 0.00 | 23 | 1014.6 |
| 20260508224712 | 75 | 9 | 6.1 | 6.1 | 0.00 | 0.00 | 0.00 | 23 | 1014.7 |
| 20260508224209 | 75 | 39 | 1.7 | 4.3 | 0.00 | 0.00 | 0.00 | 23 | 1015.0 |
| 20260508223706 | 75 | 325 | 4.3 | 5.2 | 0.00 | 0.00 | 0.00 | 23 | 1015.1 |
| 20260508223204 | 75 | 19 | 7.8 | 11.3 | 0.00 | 0.00 | 0.00 | 23 | 1015.0 |
| 20260508222701 | 75 | 272 | 5.2 | 6.1 | 0.00 | 0.00 | 0.00 | 23 | 1014.9 |
| 20260508222158 | 75 | 318 | 4.3 | 6.1 | 0.00 | 0.00 | 0.00 | 23 | 1015.2 |
| 20260508221654 | 75 | 355 | 6.1 | 7.8 | 0.00 | 0.00 | 0.00 | 24 | 1014.9 |
| 20260508221150 | 75 | 38 | 7.0 | 8.7 | 0.00 | 0.00 | 0.00 | 23 | 1015.0 |
| 20260508220647 | 75 | 344 | 7.0 | 7.8 | 0.00 | 0.00 | 0.00 | 23 | 1015.1 |
| 20260508220143 | 75 | 326 | 4.3 | 5.2 | 0.00 | 0.00 | 0.00 | 24 | 1015.3 |
| 20260508215640 | 75 | 24 | 2.6 | 4.3 | 0.00 | 0.00 | 0.00 | 23 | 1015.4 |
| 20260508215136 | 74 | 83 | 6.1 | 9.6 | 0.00 | 0.00 | 0.00 | 24 | 1015.6 |
| 20260508214633 | 74 | 313 | 3.5 | 5.2 | 0.00 | 0.00 | 0.00 | 23 | 1015.6 |
| 20260508214131 | 74 | 65 | 4.3 | 6.1 | 0.00 | 0.00 | 0.00 | 24 | 1015.7 |
| 20260508213627 | 74 | 6 | 7.8 | 11.3 | 0.00 | 0.00 | 0.00 | 24 | 1015.6 |
| 20260508213123 | 74 | 40 | 7.0 | 8.7 | 0.00 | 0.00 | 0.00 | 24 | 1015.9 |
| 20260508212620 | 74 | 67 | 3.5 | 5.2 | 0.00 | 0.00 | 0.00 | 24 | 1015.8 |
| 20260508212117 | 73 | 68 | 6.1 | 8.7 | 0.00 | 0.00 | 0.00 | 24 | 1015.7 |
| 20260508211612 | 73 | 279 | 3.5 | 6.1 | 0.00 | 0.00 | 0.00 | 25 | 1015.9 |
| 20260508211109 | 73 | 10 | 2.6 | 6.1 | 0.00 | 0.00 | 0.00 | 24 | 1015.6 |
| 20260508210606 | 74 | 347 | 10.4 | 13.9 | 0.00 | 0.00 | 0.00 | 24 | 1015.9 |
| 20260508210103 | 74 | 17 | 5.2 | 7.8 | 0.00 | 0.00 | 0.00 | 25 | 1015.8 |
| 20260508205600 | 72 | 37 | 5.2 | 6.1 | 0.00 | 0.00 | 0.00 | 25 | 1016.1 |
| 20260508205057 | 72 | 5 | 9.6 | 12.2 | 0.00 | 0.00 | 0.00 | 24 | 1016.1 |
| 20260508204553 | 72 | 16 | 6.1 | 8.7 | 0.00 | 0.00 | 0.00 | 25 | 1015.9 |
| 20260508204049 | 73 | 324 | 7.0 | 8.7 | 0.00 | 0.00 | 0.00 | 25 | 1016.1 |
| 20260508203545 | 72 | 346 | 7.8 | 12.2 | 0.00 | 0.00 | 0.00 | 25 | 1015.9 |
| 20260508203041 | 72 | 23 | 12.2 | 14.8 | 0.00 | 0.00 | 0.00 | 25 | 1016.0 |
| 20260508202538 | 73 | 37 | 7.8 | 8.7 | 0.00 | 0.00 | 0.00 | 25 | 1016.1 |
| 20260508202035 | 72 | 7 | 6.1 | 8.7 | 0.00 | 0.00 | 0.00 | 25 | 1015.9 |
| 20260508201532 | 72 | 33 | 8.7 | 12.2 | 0.00 | 0.00 | 0.00 | 25 | 1016.1 |
| 20260508201028 | 72 | 0 | 13.0 | 15.6 | 0.00 | 0.00 | 0.00 | 25 | 1016.2 |
| 20260508200526 | 72 | 1 | 3.5 | 6.1 | 0.00 | 0.00 | 0.00 | 25 | 1016.5 |
| 20260508200021 | 72 | 342 | 9.6 | 14.8 | 0.00 | 0.00 | 0.00 | 26 | 1016.4 |
| 20260508195518 | 73 | 41 | 6.1 | 7.8 | 0.00 | 0.00 | 0.00 | 25 | 1016.4 |
| 20260508195014 | 72 | 358 | 4.3 | 6.1 | 0.00 | 0.00 | 0.00 | 26 | 1016.5 |
| 20260508194511 | 72 | 50 | 7.0 | 8.7 | 0.00 | 0.00 | 0.00 | 25 | 1016.5 |
| 20260508194009 | 73 | 25 | 4.3 | 8.7 | 0.00 | 0.00 | 0.00 | 25 | 1016.5 |
| 20260508193505 | 72 | 329 | 11.3 | 13.0 | 0.00 | 0.00 | 0.00 | 25 | 1016.5 |
| 20260508193002 | 72 | 333 | 7.0 | 9.6 | 0.00 | 0.00 | 0.00 | 26 | 1016.7 |
| 20260508192458 | 72 | 289 | 0.9 | 0.9 | 0.00 | 0.00 | 0.00 | 27 | 1016.4 |
| 20260508191955 | 72 | 2 | 8.7 | 11.3 | 0.00 | 0.00 | 0.00 | 26 | 1016.6 |
| 20260508191452 | 72 | 333 | 9.6 | 13.0 | 0.00 | 0.00 | 0.00 | 26 | 1016.5 |
| 20260508190949 | 72 | 27 | 10.4 | 18.2 | 0.00 | 0.00 | 0.00 | 25 | 1016.7 |
| 20260508190446 | 72 | 352 | 9.6 | 11.3 | 0.00 | 0.00 | 0.00 | 25 | 1016.6 |
| 20260508185942 | 72 | 350 | 7.0 | 8.7 | 0.00 | 0.00 | 0.00 | 26 | 1016.6 |
| 20260508185440 | 72 | 3 | 4.3 | 7.0 | 0.00 | 0.00 | 0.00 | 26 | 1016.7 |
| 20260508184937 | 72 | 16 | 7.8 | 11.3 | 0.00 | 0.00 | 0.00 | 26 | 1016.7 |
| 20260508184435 | 72 | 342 | 2.6 | 5.2 | 0.00 | 0.00 | 0.00 | 26 | 1016.8 |
| 20260508183931 | 72 | 355 | 10.4 | 12.2 | 0.00 | 0.00 | 0.00 | 26 | 1016.9 |
| 20260508183428 | 73 | 344 | 7.0 | 7.8 | 0.00 | 0.00 | 0.00 | 27 | 1016.6 |
| 20260508182923 | 73 | 345 | 8.7 | 11.3 | 0.00 | 0.00 | 0.00 | 26 | 1016.8 |
| 20260508182421 | 73 | 326 | 6.1 | 7.8 | 0.00 | 0.00 | 0.00 | 25 | 1016.9 |
| 20260508181921 | 72 | 278 | 7.8 | 11.3 | 0.00 | 0.00 | 0.00 | 24 | 1016.9 |
| 20260508181418 | 72 | 294 | 9.6 | 13.0 | 0.00 | 0.00 | 0.00 | 24 | 1016.9 |
| 20260508180915 | 73 | 287 | 7.8 | 8.7 | 0.00 | 0.00 | 0.00 | 23 | 1016.9 |
| 20260508180412 | 73 | 269 | 0.9 | 1.7 | 0.00 | 0.00 | 0.00 | 26 | 1016.9 |
| 20260508175908 | 72 | 112 | 1.7 | 2.6 | 0.00 | 0.00 | 0.00 | 28 | 1016.8 |
| 20260508175405 | 71 | 234 | 2.6 | 4.3 | 0.00 | 0.00 | 0.00 | 28 | 1016.9 |
| 20260508174903 | 72 | 212 | 2.6 | 5.2 | 0.00 | 0.00 | 0.00 | 27 | 1016.9 |
| 20260508174400 | 71 | 301 | 0.0 | 0.9 | 0.00 | 0.00 | 0.00 | 28 | 1017.2 |
| 20260508173856 | 69 | 110 | 7.0 | 7.8 | 0.00 | 0.00 | 0.00 | 30 | 1017.1 |
| 20260508173354 | 70 | 48 | 6.1 | 7.0 | 0.00 | 0.00 | 0.00 | 32 | 1017.3 |
| 20260508172849 | 69 | 54 | 2.6 | 4.3 | 0.00 | 0.00 | 0.00 | 33 | 1016.9 |
| 20260508172347 | 69 | 64 | 5.2 | 6.1 | 0.00 | 0.00 | 0.00 | 34 | 1017.4 |
| 20260508171843 | 68 | 357 | 3.5 | 4.3 | 0.00 | 0.00 | 0.00 | 34 | 1017.6 |
| 20260508171339 | 69 | 308 | 2.6 | 4.3 | 0.00 | 0.00 | 0.00 | 35 | 1017.3 |
| 20260508170836 | 69 | 54 | 1.7 | 1.7 | 0.00 | 0.00 | 0.00 | 35 | 1017.3 |
| 20260508170334 | 69 | 288 | 4.3 | 6.1 | 0.00 | 0.00 | 0.00 | 34 | 1017.2 |
| 20260508165830 | 69 | 8 | 3.5 | 5.2 | 0.00 | 0.00 | 0.00 | 34 | 1017.2 |
| 20260508165328 | 69 | 339 | 6.1 | 7.8 | 0.00 | 0.00 | 0.00 | 34 | 1017.1 |
| 20260508164824 | 69 | 8 | 5.2 | 7.0 | 0.00 | 0.00 | 0.00 | 33 | 1017.3 |
| 20260508164321 | 68 | 65 | 3.5 | 6.1 | 0.00 | 0.00 | 0.00 | 35 | 1017.3 |
| 20260508163819 | 69 | 107 | 3.5 | 5.2 | 0.00 | 0.00 | 0.00 | 34 | 1017.2 |
| 20260508163316 | 69 | 37 | 4.3 | 7.0 | 0.00 | 0.00 | 0.00 | 34 | 1017.2 |
| 20260508162812 | 69 | 312 | 2.6 | 4.3 | 0.00 | 0.00 | 0.00 | 34 | 1017.1 |
| 20260508162309 | 68 | 14 | 2.6 | 6.1 | 0.00 | 0.00 | 0.00 | 33 | 1017.2 |
| 20260508161806 | 68 | 52 | 1.7 | 2.6 | 0.00 | 0.00 | 0.00 | 33 | 1016.9 |
| 20260508161303 | 69 | 349 | 0.9 | 1.7 | 0.00 | 0.00 | 0.00 | 33 | 1017.2 |
| 20260508160801 | 69 | 320 | 1.7 | 2.6 | 0.00 | 0.00 | 0.00 | 34 | 1016.8 |
| 20260508160259 | 70 | 17 | 5.2 | 7.0 | 0.00 | 0.00 | 0.00 | 32 | 1016.9 |
| 20260508155755 | 69 | 178 | 0.0 | 0.0 | 0.00 | 0.00 | 0.00 | 34 | 1016.9 |
| 20260508155252 | 69 | 125 | 3.5 | 4.3 | 0.00 | 0.00 | 0.00 | 33 | 1016.8 |
| 20260508154749 | 69 | 331 | 0.0 | 0.0 | 0.00 | 0.00 | 0.00 | 34 | 1016.9 |
| 20260508154247 | 69 | 161 | 0.0 | 0.0 | 0.00 | 0.00 | 0.00 | 34 | 1016.9 |
| 20260508153743 | 69 | 301 | 0.0 | 0.0 | 0.00 | 0.00 | 0.00 | 35 | 1017.1 |
| 20260508153240 | 70 | 173 | 0.9 | 0.9 | 0.00 | 0.00 | 0.00 | 35 | 1016.9 |
| 20260508152736 | 68 | 225 | 0.0 | 0.0 | 0.00 | 0.00 | 0.00 | 37 | 1017.1 |
| 20260508152233 | 68 | 95 | 0.9 | 0.9 | 0.00 | 0.00 | 0.00 | 36 | 1017.1 |
| 20260508151729 | 68 | 194 | 0.0 | 0.0 | 0.00 | 0.00 | 0.00 | 36 | 1016.9 |
| 20260508151226 | 68 | 185 | 0.0 | 0.0 | 0.00 | 0.00 | 0.00 | 36 | 1016.7 |
| 20260508150722 | 69 | 210 | 0.0 | 0.0 | 0.00 | 0.00 | 0.00 | 36 | 1016.6 |
| 20260508150219 | 69 | 107 | 0.0 | 0.0 | 0.00 | 0.00 | 0.00 | 36 | 1016.8 |
| 20260508145715 | 69 | 202 | 0.0 | 0.0 | 0.00 | 0.00 | 0.00 | 36 | 1016.7 |
| 20260508145211 | 67 | 207 | 0.0 | 0.0 | 0.00 | 0.00 | 0.00 | 37 | 1016.6 |
| 20260508144709 | 67 | 185 | 0.0 | 0.0 | 0.00 | 0.00 | 0.00 | 37 | 1016.7 |
| 20260508144207 | 66 | 178 | 0.0 | 0.0 | 0.00 | 0.00 | 0.00 | 38 | 1016.4 |
| 20260508143704 | 66 | 150 | 0.9 | 1.7 | 0.00 | 0.00 | 0.00 | 38 | 1016.7 |
| 20260508143201 | 66 | 194 | 0.0 | 0.0 | 0.00 | 0.00 | 0.00 | 39 | 1016.7 |
| 20260508142657 | 66 | 148 | 0.9 | 0.9 | 0.00 | 0.00 | 0.00 | 39 | 1016.4 |
| 20260508142154 | 66 | 207 | 0.0 | 0.9 | 0.00 | 0.00 | 0.00 | 39 | 1016.5 |
| 20260508141650 | 66 | 221 | 0.0 | 0.0 | 0.00 | 0.00 | 0.00 | 39 | 1016.5 |
| 20260508141148 | 66 | 235 | 0.0 | 0.0 | 0.00 | 0.00 | 0.00 | 39 | 1016.4 |
| 20260508140645 | 64 | 238 | 0.0 | 0.0 | 0.00 | 0.00 | 0.00 | 41 | 1016.2 |
| 20260508140142 | 63 | 233 | 0.0 | 0.0 | 0.00 | 0.00 | 0.00 | 42 | 1016.4 |
| 20260508135638 | 62 | 233 | 0.0 | 0.0 | 0.00 | 0.00 | 0.00 | 44 | 1016.2 |
| 20260508135133 | 61 | 235 | 0.0 | 0.0 | 0.00 | 0.00 | 0.00 | 45 | 1016.4 |
| 20260508134630 | 59 | 240 | 0.0 | 0.0 | 0.00 | 0.00 | 0.00 | 47 | 1016.2 |
| 20260508134128 | 57 | 241 | 0.0 | 0.0 | 0.00 | 0.00 | 0.00 | 49 | 1016.2 |
| 20260508133624 | 55 | 238 | 0.0 | 0.0 | 0.00 | 0.00 | 0.00 | 52 | 1016.1 |
| 20260508133121 | 54 | 233 | 0.0 | 0.9 | 0.00 | 0.00 | 0.00 | 53 | 1016.1 |
| 20260508132619 | 54 | 229 | 0.9 | 0.9 | 0.00 | 0.00 | 0.00 | 52 | 1016.1 |
| 20260508132116 | 54 | 233 | 0.0 | 0.0 | 0.00 | 0.00 | 0.00 | 51 | 1016.1 |
| 20260508131611 | 53 | 233 | 0.0 | 0.0 | 0.00 | 0.00 | 0.00 | 52 | 1015.9 |
| 20260508131108 | 52 | 236 | 0.0 | 0.0 | 0.00 | 0.00 | 0.00 | 54 | 1016.0 |
| 20260508130605 | 52 | 238 | 0.0 | 0.0 | 0.00 | 0.00 | 0.00 | 55 | 1015.7 |
| 20260508125557 | 51 | 245 | 0.0 | 0.0 | 0.00 | 0.00 | 0.00 | 58 | 1016.0 |
| 20260508125055 | 51 | 251 | 0.0 | 0.0 | 0.00 | 0.00 | 0.00 | 57 | 1015.9 |
| 20260508124553 | 51 | 251 | 0.0 | 0.0 | 0.00 | 0.00 | 0.00 | 56 | 1015.8 |
| 20260508124049 | 51 | 251 | 0.0 | 0.0 | 0.00 | 0.00 | 0.00 | 56 | 1015.7 |
| 20260508123548 | 51 | 254 | 0.0 | 0.0 | 0.00 | 0.00 | 0.00 | 56 | 1015.3 |
| 20260508123044 | 52 | 254 | 0.0 | 0.0 | 0.00 | 0.00 | 0.00 | 55 | 1015.3 |
| 20260508122541 | 51 | 254 | 0.0 | 0.0 | 0.00 | 0.00 | 0.00 | 55 | 1015.4 |
| 20260508122038 | 52 | 253 | 0.0 | 0.0 | 0.00 | 0.00 | 0.00 | 57 | 1015.6 |
| 20260508121537 | 53 | 269 | 0.0 | 0.0 | 0.00 | 0.00 | 0.00 | 50 | 1015.3 |
| 20260508121034 | 54 | 272 | 0.0 | 0.0 | 0.00 | 0.00 | 0.00 | 49 | 1015.2 |
| 20260508120531 | 54 | 273 | 0.0 | 0.0 | 0.00 | 0.00 | 0.00 | 48 | 1015.3 |
| 20260508120030 | 54 | 280 | 0.0 | 0.0 | 0.00 | 0.00 | 0.00 | 48 | 1015.4 |
| 20260508115527 | 54 | 269 | 0.0 | 0.0 | 0.00 | 0.00 | 0.00 | 48 | 1015.4 |
| 20260508115023 | 54 | 268 | 0.0 | 0.0 | 0.00 | 0.00 | 0.00 | 47 | 1015.2 |
| 20260508114520 | 55 | 273 | 0.0 | 0.0 | 0.00 | 0.00 | 0.00 | 47 | 1015.3 |
| 20260508114017 | 54 | 270 | 0.0 | 0.0 | 0.00 | 0.00 | 0.00 | 47 | 1015.4 |
| 20260508113514 | 55 | 272 | 0.0 | 0.0 | 0.00 | 0.00 | 0.00 | 46 | 1015.3 |
| 20260508113012 | 55 | 287 | 0.0 | 0.0 | 0.00 | 0.00 | 0.00 | 45 | 1015.1 |
| 20260508112508 | 55 | 302 | 0.0 | 0.0 | 0.00 | 0.00 | 0.00 | 46 | 1015.1 |
| 20260508112005 | 55 | 292 | 0.0 | 0.0 | 0.00 | 0.00 | 0.00 | 46 | 1015.1 |
| 20260508111502 | 54 | 308 | 0.0 | 0.0 | 0.00 | 0.00 | 0.00 | 45 | 1015.2 |
| 20260508110959 | 54 | 297 | 0.0 | 0.0 | 0.00 | 0.00 | 0.00 | 47 | 1015.4 |
| 20260508110457 | 54 | 276 | 0.0 | 0.0 | 0.00 | 0.00 | 0.00 | 47 | 1015.1 |
| 20260508105956 | 54 | 275 | 0.0 | 0.0 | 0.00 | 0.00 | 0.00 | 47 | 1015.0 |
| 20260508105453 | 54 | 272 | 0.0 | 0.0 | 0.00 | 0.00 | 0.00 | 48 | 1015.2 |
| 20260508104950 | 54 | 270 | 0.0 | 0.0 | 0.00 | 0.00 | 0.00 | 48 | 1014.9 |
| 20260508104448 | 53 | 256 | 0.0 | 0.0 | 0.00 | 0.00 | 0.00 | 50 | 1015.0 |
| 20260508103944 | 53 | 240 | 0.0 | 0.0 | 0.00 | 0.00 | 0.00 | 50 | 1014.7 |
| 20260508103441 | 53 | 228 | 0.0 | 0.0 | 0.00 | 0.00 | 0.00 | 50 | 1014.9 |
| 20260508102938 | 52 | 234 | 0.0 | 0.0 | 0.00 | 0.00 | 0.00 | 53 | 1015.0 |
| 20260508102437 | 53 | 245 | 0.0 | 0.0 | 0.00 | 0.00 | 0.00 | 56 | 1014.9 |
| 20260508101933 | 53 | 245 | 0.0 | 0.0 | 0.00 | 0.00 | 0.00 | 52 | 1015.1 |
| 20260508101431 | 52 | 245 | 0.0 | 0.0 | 0.00 | 0.00 | 0.00 | 51 | 1015.0 |
| 20260508100928 | 52 | 245 | 0.0 | 0.0 | 0.00 | 0.00 | 0.00 | 53 | 1015.0 |
| 20260508100427 | 52 | 245 | 0.0 | 0.0 | 0.00 | 0.00 | 0.00 | 52 | 1014.9 |
| 20260508095922 | 53 | 244 | 0.0 | 0.0 | 0.00 | 0.00 | 0.00 | 52 | 1015.1 |
| 20260508095420 | 53 | 244 | 0.0 | 0.0 | 0.00 | 0.00 | 0.00 | 50 | 1014.7 |
| 20260508094916 | 54 | 245 | 0.0 | 0.0 | 0.00 | 0.00 | 0.00 | 49 | 1014.9 |
| 20260508094413 | 54 | 244 | 0.0 | 0.0 | 0.00 | 0.00 | 0.00 | 48 | 1014.7 |
| 20260508093910 | 54 | 244 | 0.0 | 0.0 | 0.00 | 0.00 | 0.00 | 48 | 1014.7 |
| 20260508093408 | 53 | 238 | 0.0 | 0.0 | 0.00 | 0.00 | 0.00 | 51 | 1014.7 |
| 20260508092905 | 53 | 225 | 0.0 | 0.0 | 0.00 | 0.00 | 0.00 | 56 | 1014.5 |
| 20260508092403 | 54 | 211 | 0.0 | 0.0 | 0.00 | 0.00 | 0.00 | 52 | 1014.7 |
| 20260508091901 | 53 | 200 | 0.0 | 0.0 | 0.00 | 0.00 | 0.00 | 52 | 1014.6 |
| 20260508091357 | 54 | 128 | 0.0 | 0.9 | 0.00 | 0.00 | 0.00 | 51 | 1014.6 |
| 20260508090855 | 55 | 267 | 0.0 | 0.0 | 0.00 | 0.00 | 0.00 | 51 | 1014.5 |
| 20260508090354 | 55 | 265 | 0.0 | 0.0 | 0.00 | 0.00 | 0.00 | 48 | 1014.4 |
| 20260508085849 | 56 | 272 | 0.0 | 0.0 | 0.00 | 0.00 | 0.00 | 47 | 1014.6 |
| 20260508085346 | 56 | 280 | 0.0 | 0.0 | 0.00 | 0.00 | 0.00 | 47 | 1014.5 |
| 20260508084842 | 56 | 280 | 0.0 | 0.0 | 0.00 | 0.00 | 0.00 | 46 | 1014.5 |
| 20260508084339 | 56 | 279 | 0.0 | 0.0 | 0.00 | 0.00 | 0.00 | 46 | 1014.6 |
| 20260508083837 | 57 | 273 | 0.0 | 0.0 | 0.00 | 0.00 | 0.00 | 45 | 1014.6 |
| 20260508083334 | 58 | 298 | 0.0 | 0.0 | 0.00 | 0.00 | 0.00 | 42 | 1014.7 |
| 20260508082834 | 58 | 278 | 0.0 | 0.0 | 0.00 | 0.00 | 0.00 | 42 | 1014.5 |
| 20260508082332 | 56 | 265 | 0.0 | 0.0 | 0.00 | 0.00 | 0.00 | 46 | 1014.7 |
| 20260508081829 | 55 | 261 | 0.0 | 0.0 | 0.00 | 0.00 | 0.00 | 47 | 1014.6 |
| 20260508081326 | 55 | 253 | 0.0 | 0.0 | 0.00 | 0.00 | 0.00 | 47 | 1014.5 |
| 20260508080823 | 55 | 250 | 0.0 | 0.0 | 0.00 | 0.00 | 0.00 | 49 | 1014.4 |
| 20260508080321 | 55 | 243 | 0.0 | 0.0 | 0.00 | 0.00 | 0.00 | 48 | 1014.7 |
| 20260508075817 | 55 | 243 | 0.0 | 0.0 | 0.00 | 0.00 | 0.00 | 48 | 1014.6 |
| 20260508075314 | 56 | 242 | 0.0 | 0.0 | 0.00 | 0.00 | 0.00 | 47 | 1014.6 |
| 20260508074812 | 56 | 240 | 0.0 | 0.0 | 0.00 | 0.00 | 0.00 | 47 | 1014.7 |
| 20260508074309 | 56 | 246 | 0.0 | 0.0 | 0.00 | 0.00 | 0.00 | 47 | 1014.7 |
| 20260508073806 | 55 | 251 | 0.0 | 0.0 | 0.00 | 0.00 | 0.00 | 48 | 1014.6 |
| 20260508073304 | 55 | 252 | 0.0 | 0.0 | 0.00 | 0.00 | 0.00 | 49 | 1014.6 |
| 20260508072759 | 55 | 252 | 0.0 | 0.0 | 0.00 | 0.00 | 0.00 | 47 | 1014.9 |
| 20260508072256 | 56 | 251 | 0.0 | 0.0 | 0.00 | 0.00 | 0.00 | 47 | 1014.6 |
| 20260508071754 | 56 | 255 | 0.0 | 0.0 | 0.00 | 0.00 | 0.00 | 48 | 1014.5 |
| 20260508071252 | 56 | 224 | 0.0 | 0.0 | 0.00 | 0.00 | 0.00 | 48 | 1014.4 |
| 20260508070749 | 57 | 223 | 0.0 | 0.0 | 0.00 | 0.00 | 0.00 | 48 | 1014.5 |
| 20260508070248 | 59 | 213 | 0.0 | 0.0 | 0.00 | 0.00 | 0.00 | 47 | 1014.6 |
| 20260508065744 | 60 | 270 | 0.0 | 0.0 | 0.00 | 0.00 | 0.00 | 39 | 1014.5 |
| 20260508065242 | 60 | 277 | 0.9 | 0.9 | 0.00 | 0.00 | 0.00 | 39 | 1014.4 |
| 20260508064740 | 60 | 320 | 2.6 | 2.6 | 0.00 | 0.00 | 0.00 | 39 | 1014.5 |
| 20260508064238 | 60 | 285 | 1.7 | 1.7 | 0.00 | 0.00 | 0.00 | 40 | 1014.3 |
| 20260508063735 | 60 | 304 | 0.9 | 1.7 | 0.00 | 0.00 | 0.00 | 40 | 1014.3 |
| 20260508063233 | 60 | 318 | 0.9 | 0.9 | 0.00 | 0.00 | 0.00 | 40 | 1014.5 |
| 20260508062730 | 59 | 279 | 0.0 | 0.0 | 0.00 | 0.00 | 0.00 | 42 | 1014.2 |
| 20260508062227 | 59 | 285 | 0.9 | 0.9 | 0.00 | 0.00 | 0.00 | 42 | 1014.5 |
| 20260508061724 | 59 | 301 | 0.0 | 0.0 | 0.00 | 0.00 | 0.00 | 44 | 1014.6 |
| 20260508061221 | 59 | 345 | 1.7 | 2.6 | 0.00 | 0.00 | 0.00 | 43 | 1014.4 |
| 20260508060717 | 58 | 339 | 4.3 | 5.2 | 0.00 | 0.00 | 0.00 | 44 | 1014.3 |
| 20260508060216 | 57 | 216 | 0.0 | 0.0 | 0.00 | 0.00 | 0.00 | 46 | 1014.1 |
| 20260508055711 | 57 | 226 | 0.0 | 0.0 | 0.00 | 0.00 | 0.00 | 47 | 1014.1 |
| 20260508055208 | 58 | 231 | 0.0 | 0.0 | 0.00 | 0.00 | 0.00 | 46 | 1013.9 |
| 20260508054704 | 58 | 233 | 0.0 | 0.0 | 0.00 | 0.00 | 0.00 | 45 | 1014.2 |
| 20260508054202 | 58 | 227 | 0.0 | 0.0 | 0.00 | 0.00 | 0.00 | 45 | 1014.1 |
| 20260508053659 | 58 | 229 | 0.0 | 0.0 | 0.00 | 0.00 | 0.00 | 45 | 1014.1 |
| 20260508053156 | 59 | 228 | 0.0 | 0.0 | 0.00 | 0.00 | 0.00 | 45 | 1013.9 |
| 20260508052654 | 59 | 228 | 0.0 | 0.0 | 0.00 | 0.00 | 0.00 | 44 | 1014.2 |
| 20260508052150 | 59 | 229 | 0.0 | 0.0 | 0.00 | 0.00 | 0.00 | 44 | 1013.8 |
| 20260508051647 | 59 | 231 | 0.0 | 0.0 | 0.00 | 0.00 | 0.00 | 42 | 1014.2 |
| 20260508051142 | 59 | 247 | 0.0 | 0.0 | 0.00 | 0.00 | 0.00 | 42 | 1014.1 |
| 20260508050638 | 59 | 249 | 0.0 | 0.0 | 0.00 | 0.00 | 0.00 | 43 | 1013.9 |
| 20260508050136 | 58 | 250 | 0.0 | 0.0 | 0.00 | 0.00 | 0.00 | 43 | 1013.9 |
| 20260508045632 | 59 | 239 | 0.0 | 0.0 | 0.00 | 0.00 | 0.00 | 44 | 1014.3 |
| 20260508045130 | 59 | 235 | 0.0 | 0.0 | 0.00 | 0.00 | 0.00 | 43 | 1013.9 |
| 20260508044627 | 59 | 229 | 1.7 | 2.6 | 0.00 | 0.00 | 0.00 | 43 | 1014.1 |
| 20260508044123 | 59 | 214 | 1.7 | 1.7 | 0.00 | 0.00 | 0.00 | 43 | 1013.9 |
| 20260508043620 | 60 | 226 | 0.9 | 1.7 | 0.00 | 0.00 | 0.00 | 43 | 1014.3 |
| 20260508043118 | 60 | 229 | 1.7 | 1.7 | 0.00 | 0.00 | 0.00 | 42 | 1013.9 |
| 20260508042614 | 60 | 231 | 0.0 | 0.9 | 0.00 | 0.00 | 0.00 | 43 | 1014.2 |
| 20260508042111 | 60 | 232 | 1.7 | 2.6 | 0.00 | 0.00 | 0.00 | 43 | 1013.8 |
| 20260508041607 | 60 | 230 | 0.9 | 1.7 | 0.00 | 0.00 | 0.00 | 42 | 1014.1 |
| 20260508041104 | 60 | 244 | 0.0 | 0.0 | 0.00 | 0.00 | 0.00 | 41 | 1014.1 |
| 20260508040601 | 60 | 241 | 0.0 | 0.0 | 0.00 | 0.00 | 0.00 | 42 | 1014.1 |
| 20260508040059 | 60 | 234 | 0.0 | 0.0 | 0.00 | 0.00 | 0.00 | 42 | 1013.9 |
| 20260508035555 | 61 | 240 | 0.0 | 0.0 | 0.00 | 0.00 | 0.00 | 42 | 1014.1 |
| 20260508035053 | 61 | 235 | 0.0 | 0.0 | 0.00 | 0.00 | 0.00 | 42 | 1014.2 |
| 20260508034549 | 62 | 232 | 0.9 | 1.7 | 0.00 | 0.00 | 0.00 | 40 | 1013.9 |
| 20260508034046 | 62 | 234 | 1.7 | 1.7 | 0.00 | 0.00 | 0.00 | 40 | 1013.7 |
| 20260508033544 | 62 | 239 | 1.7 | 1.7 | 0.00 | 0.00 | 0.00 | 40 | 1013.7 |
| 20260508033042 | 64 | 236 | 1.7 | 1.7 | 0.00 | 0.00 | 0.00 | 38 | 1014.1 |
| 20260508032538 | 64 | 260 | 0.0 | 0.0 | 0.00 | 0.00 | 0.00 | 37 | 1013.8 |
| 20260508032036 | 65 | 269 | 0.0 | 0.0 | 0.00 | 0.00 | 0.00 | 36 | 1013.8 |
| 20260508031533 | 65 | 272 | 0.0 | 0.0 | 0.00 | 0.00 | 0.00 | 35 | 1013.5 |
| 20260508031029 | 65 | 274 | 0.0 | 0.0 | 0.00 | 0.00 | 0.00 | 35 | 1013.6 |
| 20260508030525 | 66 | 271 | 0.0 | 0.0 | 0.00 | 0.00 | 0.00 | 34 | 1013.5 |
| 20260508030024 | 66 | 292 | 0.0 | 0.0 | 0.00 | 0.00 | 0.00 | 34 | 1013.6 |
| 20260508025519 | 66 | 259 | 0.0 | 0.0 | 0.00 | 0.00 | 0.00 | 34 | 1013.6 |
| 20260508025016 | 67 | 261 | 0.0 | 0.0 | 0.00 | 0.00 | 0.00 | 34 | 1013.5 |
| 20260508024512 | 67 | 270 | 0.0 | 0.0 | 0.00 | 0.00 | 0.00 | 32 | 1013.4 |
| 20260508024009 | 67 | 282 | 0.0 | 0.0 | 0.00 | 0.00 | 0.00 | 31 | 1013.2 |
| 20260508023506 | 68 | 291 | 0.0 | 0.0 | 0.00 | 0.00 | 0.00 | 31 | 1013.5 |
| 20260508023004 | 69 | 298 | 0.0 | 0.0 | 0.00 | 0.00 | 0.00 | 30 | 1013.1 |
| 20260508022459 | 69 | 308 | 0.0 | 0.0 | 0.00 | 0.00 | 0.00 | 29 | 1013.4 |
| 20260508021955 | 70 | 300 | 0.0 | 0.0 | 0.00 | 0.00 | 0.00 | 29 | 1013.1 |
| 20260508021452 | 70 | 324 | 0.0 | 0.0 | 0.00 | 0.00 | 0.00 | 29 | 1012.9 |
| 20260508020948 | 71 | 357 | 0.0 | 0.0 | 0.00 | 0.00 | 0.00 | 28 | 1013.5 |
| 20260508020446 | 71 | 45 | 0.0 | 0.0 | 0.00 | 0.00 | 0.00 | 28 | 1013.1 |
| 20260508015943 | 72 | 37 | 0.0 | 0.0 | 0.00 | 0.00 | 0.00 | 27 | 1013.0 |
| 20260508015441 | 72 | 150 | 0.9 | 1.7 | 0.00 | 0.00 | 0.00 | 27 | 1012.9 |
| 20260508014937 | 72 | 98 | 0.9 | 1.7 | 0.00 | 0.00 | 0.00 | 27 | 1013.2 |
| 20260508014434 | 72 | 143 | 3.5 | 5.2 | 0.00 | 0.00 | 0.00 | 27 | 1012.8 |
| 20260508013930 | 72 | 134 | 1.7 | 2.6 | 0.00 | 0.00 | 0.00 | 27 | 1013.0 |
| 20260508013426 | 72 | 174 | 2.6 | 2.6 | 0.00 | 0.00 | 0.00 | 27 | 1013.0 |
| 20260508012924 | 73 | 121 | 3.5 | 4.3 | 0.00 | 0.00 | 0.00 | 26 | 1013.1 |
| 20260508012420 | 73 | 167 | 0.0 | 0.9 | 0.00 | 0.00 | 0.00 | 26 | 1013.1 |
| 20260508011918 | 73 | 131 | 0.0 | 0.0 | 0.00 | 0.00 | 0.00 | 26 | 1013.1 |
| 20260508011416 | 73 | 130 | 2.6 | 2.6 | 0.00 | 0.00 | 0.00 | 26 | 1013.2 |
| 20260508010913 | 76 | 218 | 0.0 | 0.0 | 0.00 | 0.00 | 0.00 | 24 | 1013.0 |
| 20260508010410 | 75 | 277 | 0.0 | 0.0 | 0.00 | 0.00 | 0.00 | 23 | 1013.1 |